Regional Weather Roundup
Issued by NWS

Home | Current Version | Previous Version | Graphics & Text | Print | Product List | Glossary On
Versions: 1 2 3 4 5 6 7 8 9 10 11 12 13 14 15 16 17 18 19 20 21 22 23 24 25 26 27 28 29 30 31 32 33 34 35 36 37 38 39 40 41 42 43 44 45 46 47 48
000
ASUS45 KTFX 271510
RWRMT
MONTANA REGIONAL WEATHER ROUNDUP
NATIONAL WEATHER SERVICE GREAT FALLS MT
900 AM MDT MON JUL 27 2015

NOTE: "FAIR" INDICATES FEW OR NO CLOUDS BELOW 12000 FEET WITH NO
SIGNIFICANT WEATHER AND/OR OBSTRUCTIONS TO VISIBILITY.

MTZ001>007-043-271600-
WEST OF THE DIVIDE

CITY           SKY/WX    TMP DP  RH WIND       PRES   REMARKS
KALISPELL      CLOUDY    55  43  63 CALM      29.95S
MISSOULA       CLOUDY    52  50  93 W3        30.00S
BUTTE          CLOUDY    50  46  86 W12       29.98R
MULLAN PASS    PTSUNNY   43  37  79 VRB3      30.05R
DEER LODGE       N/A     50  45  81 W9        30.02R
EUREKA           N/A     57  46  67 CALM      29.99F
HAMILTON         N/A     52  46  82 NW6       30.01R
LIBBY            N/A     54  45  71 CALM      29.99S
PLAINS           N/A     59  44  57 CALM      29.98S
RONAN            N/A     56  48  74 E5        30.02S
$$

MTZ008-052>055-271600-
SOUTHWEST MONTANA

CITY           SKY/WX    TMP DP  RH WIND       PRES   REMARKS
BOZEMAN        CLOUDY    58  52  80 NW7       29.90F
DILLON         CLOUDY    53  49  86 NW5       29.94R
W YELLOWSTONE  MOSUNNY   57  45  62 CALM      29.94F
TWIN BRIDGES     N/A     55  43  64 N10       29.93R
$$

MTZ009-010-012-014-046-048-049-054-271600-
EAST SLOPES AND CENTRAL MONTANA

CITY           SKY/WX    TMP DP  RH WIND       PRES   REMARKS
CUT BANK       CLOUDY    52  45  77 NW9       29.95S
GREAT FALLS    LGT RAIN  52  50  93 NW13      29.92R
MALMSTROM AFB  LGT RAIN  53  51  90 W13G23    29.92S
HELENA         CLOUDY    54  51  90 W5        29.92F
CONRAD           N/A     53  52  97 NW3       29.96F
$$

MTZ011-013-016-021-045-047-050-051-271600-
NORTH CENTRAL MONTANA

CITY           SKY/WX    TMP DP  RH WIND       PRES   REMARKS
HAVRE          LGT RAIN  56  55  97 NW12      29.86S
LEWISTOWN      CLOUDY    60  55  83 N8        29.90R
CHINOOK          N/A     63  63 100 N3        29.85S
FORT BENTON      N/A     57  54  88 S6        29.90R
$$

MTZ017>020-022>027-061-062-271600-
NORTHEAST MONTANA

CITY           SKY/WX    TMP DP  RH WIND       PRES   REMARKS
GLASGOW        CLOUDY    67  56  67 N12       29.80R
JORDAN           N/A     68  56  65 N18       29.77S
SIDNEY         MOSUNNY  N/A N/A N/A NE13G20   29.75F
WOLF POINT     SUNNY     74  59  59 NE22G31   29.73F
PLENTYWOOD       N/A     66  61  82 NE14G23   29.79F
POPLAR           N/A     72  61  68 NE16G26   29.73F
SCOBEY           N/A     65  57  75 NE21      29.77F
$$

MTZ028>42-056>058-271600-
SOUTHCENTRAL AND SOUTHEAST MONTANA

CITY           SKY/WX    TMP DP  RH WIND       PRES   REMARKS
BAKER          SUNNY     74  58  57 S22       29.75F
BILLINGS       CLOUDY    65  54  67 N6        29.86R
LIVINGSTON     SUNNY     63  52  67 NW3       29.87F
MILES CITY     SUNNY     74  59  59 SW7       29.71R
FORSYTH          N/A     73  59  60 NW8       29.72F
LAUREL           N/A     65  52  62 CALM      29.86S
ROUNDUP          N/A     68  53  58 N16       29.77R
$$

REGIONAL REPORTS...DAKOTAS

CITY           SKY/WX    TMP DP  RH WIND       PRES   REMARKS
WILLISTON      CLOUDY    73  59  61 NE10      29.79F
MINOT          MOSUNNY   74  63  68 E12       29.80F
DICKINSON      SUNNY     73  58  59 E14       29.76F
BEACH          FAIR      75  59  57 SE17G26   29.75F
CROSBY         FAIR      66  66 100 CALM      29.87R
BISMARCK       MOSUNNY   79  63  57 S9        29.80F
GRAND FORKS    PTSUNNY   79  70  74 S12       29.86S
FARGO          MOSUNNY   82  71  69 SE12      29.86R
BUFFALO SD       N/A     74  60  61 S18G24    29.70F
RAPID CITY     MOSUNNY   75  62  64 SE14      29.78F
$$

REGIONAL REPORTS...WYOMING/IDAHO/WASHINGTON

CITY           SKY/WX    TMP DP  RH WIND       PRES   REMARKS
GILLETTE       PTSUNNY   78  46  32 N7        29.80R
SHERIDAN       SUNNY     67  51  56 NW18G26   29.83F
BUFFALO WY     SUNNY     67  49  52 N12       29.86S
CODY           SUNNY     63  52  67 N14       29.89S
YELLOWSTONE LA   N/A     55  42  61 SE5       30.01F
IDAHO FALLS    MOSUNNY   61  43  51 SW26G32   29.92S
SALMON         CLOUDY    50  50 100 SW7       29.98S
BOISE          SUNNY     60  41  49 NW15G21   30.02R
SPOKANE        PTSUNNY   58  43  57 W7        30.01S
$$

REGIONAL REPORTS...ALBERTA

CITY           SKY/WX    TMP DP  RH WIND       PRES   REMARKS
EDMONTON       MOSUNNY   55  48  76 W9        29.95R
CALGARY        PTSUNNY   54  43  66 N13       29.98R
LETHBRIDGE     PTSUNNY   54  46  76 W9        29.96R
MEDICINE HAT   PTSUNNY   55  50  82 W9        29.89R
WATERTON GATE    N/A     55  45  67 NE5         N/A
CARDSTON         N/A     52  46  82 NW1         N/A
ONEFOUR          N/A     52  50  93 NW15        N/A
$$

REGIONAL REPORTS...SASKATCHEWAN

CITY           SKY/WX    TMP DP  RH WIND       PRES   REMARKS
SWIFT CURRENT  PTSUNNY   61  57  88 N6        29.90R
REGINA         LGT RAIN  59  55  88 NE30G38   29.78F
SASKATOON      CLOUDY    63  55  77 N8        29.90S
CYPRESS HILLS    N/A     55  52  88 SE5         N/A
VAL MARIE        N/A     63  59  88 NW10        N/A
ROCKGLEN         N/A     61  59  94 NE8G21      N/A
$$


USA.gov is the U.S. government's official web portal to all federal, state and local government web resources and services.